Muncie, IN

6:48 AM EDT on October 21, 2017 (GMT -0400)
Delaware County-Johnson

Weather History for KMIE - December, 2011

Change the Weather History Date:

Monday, December 12, 2011

  Actual Average Record
Temperature  
Mean Temperature 33 °F 31 °F  
Max Temperature 44 °F 39 °F 71 °F (2015)
Min Temperature 21 °F 24 °F -9 °F (1962)
Degree Days  
Heating Degree Days 32 34  
Month to date heating degree days 378 379  
Since 1 July heating degree days 1432 1514  
Cooling Degree Days 0 0  
Month to date cooling degree days 0 0  
Year to date cooling degree days 1068 956  
Moisture  
Dew Point 17 °F    
Average Humidity 58    
Maximum Humidity 85    
Minimum Humidity 31    
Precipitation  
Precipitation 0.00 in 0.09 in 0.77 in (1983)
Month to date precipitation 1.42 1.17  
Year to date precipitation 45.44 38.41  
Sea Level Pressure  
Sea Level Pressure 30.44 in    
Wind  
Wind Speed 2 mph (South)    
Max Wind Speed 8 mph    
Max Gust Speed 14 mph    
Visibility 10 miles    
Events      
T = Trace of Precipitation, MM = Missing Value Source: NWS Daily Summary

Daily Weather History Graph

Daily Weather History Graph

Search for Another Location

Airport or City:

Trip Planner

Search our weather history database for the weather conditions in past years. The results will help you decide how hot, cold, wet, or windy it might be!

Date:

Astronomy

Dec. 12, 2011 Rise Set
Actual Time 7:54 AM EST 5:15 PM EST
Civil Twilight 7:24 AM EST 5:46 PM EST
Nautical Twilight 6:49 AM EST 6:20 PM EST
Astronomical Twilight 6:16 AM EST 6:53 PM EST
Moon 7:26 PM EST (12/12) 9:25 AM EST (12/12)
Length of Visible Light 10h 22m
Length of Day
9h 21m
Waning Gibbous, 96% of the Moon is Illuminated
Dec 12
Waning Gibbous
Dec 17
Last Quarter
Dec 24
New
Jan 1
First Quarter
Jan 9
Full

Hourly Weather History & Observations

Time (EST) Temp. Windchill Dew Point Humidity Pressure Visibility Wind Dir Wind Speed Gust Speed Precip Events Conditions
12:53 AM 27.0 °F - 14.0 °F 58% 30.45 in 10.0 mi Calm Calm - N/A   Clear
1:53 AM 25.0 °F - 14.0 °F 63% 30.44 in 10.0 mi Calm Calm - N/A   Clear
2:53 AM 26.1 °F 21.9 °F 14.0 °F 60% 30.43 in 10.0 mi South 3.5 mph - N/A   Clear
3:53 AM 25.0 °F - 14.0 °F 63% 30.44 in 10.0 mi Calm Calm - N/A   Clear
4:53 AM 25.0 °F 20.7 °F 14.0 °F 63% 30.44 in 10.0 mi South 3.5 mph - N/A   Clear
5:53 AM 23.0 °F - 15.1 °F 72% 30.45 in 10.0 mi Calm Calm - N/A   Clear
6:53 AM 23.0 °F - 15.1 °F 72% 30.46 in 10.0 mi Calm Calm - N/A   Clear
7:53 AM 23.0 °F - 14.0 °F 68% 30.48 in 10.0 mi Calm Calm - N/A   Clear
9:53 AM 33.1 °F 30.0 °F 18.0 °F 54% 30.48 in 10.0 mi South 3.5 mph - N/A   Clear
10:53 AM 37.0 °F 34.5 °F 18.0 °F 46% 30.48 in 10.0 mi WSW 3.5 mph - N/A   Clear
11:53 AM 41.0 °F - 18.0 °F 40% 30.46 in 10.0 mi Calm Calm - N/A   Clear
12:53 PM 42.1 °F - 15.1 °F 34% 30.43 in 10.0 mi Calm Calm - N/A   Clear
1:53 PM 44.1 °F 42.5 °F 15.1 °F 31% 30.43 in 10.0 mi Variable 3.5 mph - N/A   Clear
2:53 PM 44.1 °F 40.8 °F 16.0 °F 32% 30.41 in 10.0 mi South 5.8 mph - N/A   Clear
3:53 PM 44.1 °F 42.5 °F 18.0 °F 35% 30.41 in 10.0 mi Variable 3.5 mph - N/A   Clear
4:53 PM 42.1 °F 39.2 °F 18.0 °F 38% 30.42 in 10.0 mi SSW 4.6 mph - N/A   Clear
5:53 PM 39.0 °F - 18.0 °F 43% 30.42 in 10.0 mi Calm Calm - N/A   Clear
6:53 PM 33.1 °F - 19.9 °F 59% 30.44 in 10.0 mi Calm Calm - N/A   Clear
7:53 PM 32.0 °F 27.5 °F 21.0 °F 64% 30.44 in 10.0 mi South 4.6 mph - N/A   Clear
8:53 PM 30.0 °F - 21.0 °F 69% 30.44 in 10.0 mi Calm Calm - N/A   Clear
9:53 PM 30.0 °F 26.5 °F 23.0 °F 75% 30.43 in 10.0 mi SSE 3.5 mph - N/A   Overcast
10:53 PM 28.9 °F - 24.1 °F 82% 30.44 in 10.0 mi Calm Calm - N/A   Scattered Clouds
11:53 PM 32.0 °F 28.7 °F 24.1 °F 73% 30.44 in 10.0 mi South 3.5 mph - N/A   Mostly Cloudy